Вернуться в каталог

STARLINK-2639

АктивенСвязьVLEO
NORAD 48436·PAYLOAD·🇺🇸 United States

Запущен May 9, 2021 с Cape Canaveral Space Force Station

Loading…

Ближайшие Пролёты (ближайшие 24 часа)

TLE

СвежийSource: CelesTrak SupGP

Эпоха: Sep 14, 2026, 21:37 UTC

1 48436C 21040J   26257.90118056 -.00004367  00000+0 -14041-3 0  2575
2 48436  53.1612  17.6028 0001311  83.4521 114.4477 15.31707505    11

Отслеживайте STARLINK-2639 в реальном времени с AllMySat

Download on the App Store